| time (UTC) | temp C | wind direction | speed KPH | gust KPH | rain 1hr cm | rain 24hr cm | rain mn cm | humidity % | barometer mb |
| 20260507084006 | 15 | 319 | 3.2 | 11.3 | 0.00 | 0.00 | 0.00 | 69 | 1015.6 |
| 20260507083006 | 14 | 337 | 1.6 | 9.7 | 0.00 | 0.00 | 0.00 | 69 | 1015.6 |
| 20260507082506 | 14 | 321 | 1.6 | 9.7 | 0.00 | 0.00 | 0.00 | 71 | 1015.6 |
| 20260507082006 | 13 | 326 | 1.6 | 14.5 | 0.00 | 0.00 | 0.00 | 69 | 1015.6 |
| 20260507081506 | 13 | 330 | 1.6 | 14.5 | 0.00 | 0.00 | 0.00 | 70 | 1015.7 |
| 20260507081006 | 13 | 338 | 0.0 | 11.3 | 0.00 | 0.00 | 0.00 | 71 | 1015.7 |
| 20260507080506 | 13 | 0 | 0.0 | 0.0 | 0.00 | 0.00 | 0.00 | 73 | 1015.6 |
| 20260507075017 | 13 | 19 | 0.0 | 8.0 | 0.00 | 0.00 | 0.00 | 74 | 1015.5 |
| 20260507074506 | 13 | 359 | 1.6 | 8.0 | 0.00 | 0.00 | 0.00 | 75 | 1015.5 |
| 20260507074006 | 13 | 351 | 1.6 | 8.0 | 0.00 | 0.00 | 0.00 | 75 | 1015.5 |
| 20260507073506 | 12 | 19 | 1.6 | 9.7 | 0.00 | 0.00 | 0.00 | 75 | 1015.5 |
| 20260507073007 | 12 | 17 | 1.6 | 9.7 | 0.00 | 0.00 | 0.00 | 76 | 1015.4 |
| 20260507072506 | 12 | 349 | 1.6 | 8.0 | 0.00 | 0.00 | 0.00 | 78 | 1015.4 |
| 20260507072006 | 12 | 337 | 1.6 | 8.0 | 0.00 | 0.00 | 0.00 | 79 | 1015.4 |
| 20260507071506 | 11 | 333 | 0.0 | 6.4 | 0.00 | 0.00 | 0.00 | 82 | 1015.3 |
| 20260507071007 | 11 | 321 | 0.0 | 6.4 | 0.00 | 0.00 | 0.00 | 83 | 1015.4 |
| 20260507070506 | 11 | 11 | 0.0 | 1.6 | 0.00 | 0.00 | 0.00 | 84 | 1015.4 |
| 20260507065007 | 10 | 323 | 1.6 | 12.9 | 0.00 | 0.00 | 0.00 | 87 | 1015.4 |
| 20260507064006 | 10 | 328 | 3.2 | 12.9 | 0.00 | 0.00 | 0.00 | 89 | 1015.2 |
| 20260507063506 | 9 | 323 | 1.6 | 12.9 | 0.00 | 0.00 | 0.00 | 90 | 1015.2 |
| 20260507063006 | 9 | 303 | 1.6 | 9.7 | 0.00 | 0.00 | 0.00 | 90 | 1015.2 |
| 20260507062506 | 8 | 241 | 0.0 | 6.4 | 0.00 | 0.00 | 0.00 | 91 | 1015.2 |
| 20260507061506 | 8 | 0 | 0.0 | 0.0 | 0.00 | 0.00 | 0.00 | 91 | 1015.2 |
| 20260507060506 | 8 | 0 | 0.0 | 0.0 | 0.00 | 0.00 | 0.00 | 91 | 1015.2 |
| 20260507054507 | 7 | 0 | 0.0 | 0.0 | 0.00 | 0.00 | 0.00 | 93 | 1015.0 |
| 20260507054006 | 7 | 0 | 0.0 | 0.0 | 0.00 | 0.00 | 0.00 | 93 | 1014.9 |
| 20260507053006 | 7 | 0 | 0.0 | 0.0 | 0.00 | 0.00 | 0.00 | 93 | 1014.9 |
| 20260507052507 | 7 | 0 | 0.0 | 0.0 | 0.00 | 0.00 | 0.00 | 93 | 1014.9 |
| 20260507052006 | 7 | 0 | 0.0 | 0.0 | 0.00 | 0.00 | 0.00 | 93 | 1014.8 |
| 20260507051506 | 7 | 0 | 0.0 | 0.0 | 0.00 | 0.00 | 0.00 | 93 | 1014.7 |
| 20260507051007 | 7 | 0 | 0.0 | 0.0 | 0.00 | 0.00 | 0.00 | 93 | 1014.7 |
| 20260507050506 | 7 | 0 | 0.0 | 0.0 | 0.00 | 0.00 | 0.00 | 93 | 1014.6 |
| 20260507050006 | 7 | 0 | 0.0 | 0.0 | 0.00 | 0.00 | 0.00 | 93 | 1014.6 |
| 20260507045507 | 6 | 0 | 0.0 | 0.0 | 0.00 | 0.00 | 0.00 | 93 | 1014.5 |
| 20260507044506 | 6 | 0 | 0.0 | 0.0 | 0.00 | 0.00 | 0.00 | 93 | 1014.4 |
| 20260507044006 | 6 | 0 | 0.0 | 0.0 | 0.00 | 0.00 | 0.00 | 93 | 1014.3 |
| 20260507043507 | 6 | 0 | 0.0 | 0.0 | 0.00 | 0.00 | 0.00 | 93 | 1014.3 |
| 20260507043006 | 6 | 0 | 0.0 | 0.0 | 0.00 | 0.00 | 0.00 | 93 | 1014.3 |
| 20260507042506 | 6 | 0 | 0.0 | 0.0 | 0.00 | 0.00 | 0.00 | 93 | 1014.2 |
| 20260507041007 | 6 | 0 | 0.0 | 0.0 | 0.00 | 0.00 | 0.00 | 93 | 1014.2 |
| 20260507040506 | 6 | 0 | 0.0 | 0.0 | 0.00 | 0.00 | 0.00 | 93 | 1014.2 |
| 20260507040007 | 6 | 0 | 0.0 | 0.0 | 0.00 | 0.00 | 0.00 | 93 | 1014.1 |
| 20260507035506 | 6 | 0 | 0.0 | 0.0 | 0.00 | 0.00 | 0.00 | 93 | 1014.0 |
| 20260507034506 | 6 | 0 | 0.0 | 0.0 | 0.00 | 0.00 | 0.00 | 93 | 1014.0 |
| 20260507034006 | 6 | 0 | 0.0 | 0.0 | 0.00 | 0.00 | 0.00 | 93 | 1014.0 |
| 20260507033508 | 6 | 0 | 0.0 | 0.0 | 0.00 | 0.00 | 0.00 | 92 | 1014.0 |
| 20260507033006 | 6 | 0 | 0.0 | 0.0 | 0.00 | 0.00 | 0.00 | 93 | 1014.0 |
| 20260507032006 | 7 | 0 | 0.0 | 0.0 | 0.00 | 0.00 | 0.00 | 92 | 1014.0 |
| 20260507031507 | 7 | 0 | 0.0 | 0.0 | 0.00 | 0.00 | 0.00 | 92 | 1013.9 |
| 20260507031007 | 7 | 0 | 0.0 | 0.0 | 0.00 | 0.00 | 0.00 | 92 | 1013.9 |
| 20260507030006 | 7 | 0 | 0.0 | 0.0 | 0.00 | 0.00 | 0.00 | 92 | 1013.8 |
| 20260507025507 | 7 | 0 | 0.0 | 0.0 | 0.00 | 0.00 | 0.00 | 92 | 1013.8 |
| 20260507024506 | 7 | 0 | 0.0 | 0.0 | 0.00 | 0.00 | 0.00 | 92 | 1013.8 |
| 20260507024006 | 7 | 0 | 0.0 | 0.0 | 0.00 | 0.00 | 0.00 | 91 | 1013.8 |
| 20260507023506 | 7 | 0 | 0.0 | 0.0 | 0.00 | 0.00 | 0.00 | 91 | 1013.7 |
| 20260507022506 | 7 | 0 | 0.0 | 0.0 | 0.00 | 0.00 | 0.00 | 91 | 1013.7 |
| 20260507022007 | 7 | 0 | 0.0 | 0.0 | 0.00 | 0.00 | 0.00 | 91 | 1013.6 |
| 20260507021006 | 7 | 0 | 0.0 | 0.0 | 0.00 | 0.00 | 0.00 | 91 | 1013.6 |
| 20260507020503 | 7 | 0 | 0.0 | 0.0 | 0.00 | 0.00 | 0.00 | 90 | 1013.5 |
| 20260507015506 | 7 | 0 | 0.0 | 0.0 | 0.00 | 0.00 | 0.00 | 90 | 1013.4 |
| 20260507015006 | 7 | 0 | 0.0 | 0.0 | 0.00 | 0.00 | 0.00 | 90 | 1013.4 |
| 20260507014008 | 8 | 0 | 0.0 | 0.0 | 0.00 | 0.00 | 0.00 | 90 | 1013.4 |
| 20260507013521 | 8 | 0 | 0.0 | 0.0 | 0.00 | 0.00 | 0.00 | 89 | 1013.4 |
| 20260507013006 | 8 | 0 | 0.0 | 0.0 | 0.00 | 0.00 | 0.00 | 89 | 1013.4 |
| 20260507012506 | 8 | 0 | 0.0 | 0.0 | 0.00 | 0.00 | 0.00 | 89 | 1013.4 |
| 20260507012006 | 8 | 0 | 0.0 | 0.0 | 0.00 | 0.00 | 0.00 | 89 | 1013.3 |
| 20260507011506 | 8 | 0 | 0.0 | 0.0 | 0.00 | 0.00 | 0.00 | 88 | 1013.3 |
| 20260507010507 | 8 | 0 | 0.0 | 0.0 | 0.00 | 0.00 | 0.00 | 88 | 1013.2 |
| 20260507010006 | 8 | 0 | 0.0 | 0.0 | 0.00 | 0.00 | 0.00 | 88 | 1013.2 |
| 20260507005506 | 8 | 0 | 0.0 | 0.0 | 0.00 | 0.00 | 0.00 | 88 | 1013.2 |
| 20260507005007 | 8 | 0 | 0.0 | 0.0 | 0.00 | 0.00 | 0.00 | 88 | 1013.2 |
| 20260507004506 | 8 | 0 | 0.0 | 0.0 | 0.00 | 0.00 | 0.00 | 88 | 1013.1 |
| 20260507004006 | 8 | 344 | 0.0 | 6.4 | 0.00 | 0.00 | 0.00 | 87 | 1013.1 |
| 20260507003006 | 8 | 0 | 0.0 | 0.0 | 0.00 | 0.00 | 0.00 | 87 | 1013.1 |
| 20260507002505 | 9 | 0 | 0.0 | 0.0 | 0.00 | 0.00 | 0.00 | 86 | 1013.0 |
| 20260507002005 | 9 | 0 | 0.0 | 0.0 | 0.00 | 0.00 | 0.00 | 86 | 1013.0 |
| 20260507001505 | 9 | 0 | 0.0 | 0.0 | 0.00 | 0.00 | 0.00 | 86 | 1013.0 |
| 20260507001005 | 9 | 0 | 0.0 | 0.0 | 0.00 | 0.00 | 0.00 | 86 | 1013.0 |
| 20260507000505 | 9 | 0 | 0.0 | 0.0 | 0.00 | 0.00 | 0.00 | 85 | 1012.9 |
| 20260507000005 | 9 | 0 | 0.0 | 0.0 | 0.00 | 0.00 | 0.00 | 85 | 1012.9 |
| 20260506235505 | 10 | 342 | 0.0 | 8.0 | 0.00 | 0.00 | 0.00 | 85 | 1012.9 |
| 20260506235005 | 10 | 340 | 1.6 | 12.9 | 0.00 | 0.00 | 0.00 | 84 | 1012.9 |
| 20260506234506 | 10 | 336 | 1.6 | 14.5 | 0.00 | 0.00 | 0.00 | 84 | 1012.9 |
| 20260506234005 | 10 | 338 | 1.6 | 14.5 | 0.00 | 0.00 | 0.00 | 84 | 1012.8 |
| 20260506233505 | 10 | 342 | 1.6 | 9.7 | 0.00 | 0.00 | 0.00 | 83 | 1012.7 |
| 20260506233005 | 10 | 337 | 1.6 | 14.5 | 0.00 | 0.00 | 0.00 | 83 | 1012.7 |
| 20260506232505 | 10 | 331 | 1.6 | 14.5 | 0.00 | 0.00 | 0.00 | 82 | 1012.7 |
| 20260506232006 | 10 | 332 | 0.0 | 6.4 | 0.00 | 0.00 | 0.00 | 82 | 1012.7 |
| 20260506231505 | 10 | 0 | 0.0 | 0.0 | 0.00 | 0.00 | 0.00 | 82 | 1012.7 |
| 20260506231005 | 10 | 0 | 0.0 | 0.0 | 0.00 | 0.00 | 0.00 | 81 | 1012.6 |
| 20260506230506 | 10 | 0 | 0.0 | 0.0 | 0.00 | 0.00 | 0.00 | 81 | 1012.7 |
| 20260506225506 | 10 | 0 | 0.0 | 0.0 | 0.00 | 0.00 | 0.00 | 80 | 1012.6 |
| 20260506225005 | 11 | 0 | 0.0 | 0.0 | 0.00 | 0.00 | 0.00 | 80 | 1012.6 |
| 20260506224507 | 11 | 0 | 0.0 | 0.0 | 0.00 | 0.00 | 0.00 | 79 | 1012.5 |
| 20260506224005 | 11 | 0 | 0.0 | 0.0 | 0.00 | 0.00 | 0.00 | 79 | 1012.5 |
| 20260506223505 | 11 | 0 | 0.0 | 0.0 | 0.00 | 0.00 | 0.00 | 79 | 1012.6 |
| 20260506223005 | 11 | 0 | 0.0 | 0.0 | 0.00 | 0.00 | 0.00 | 78 | 1012.6 |
| 20260506222005 | 11 | 0 | 0.0 | 0.0 | 0.00 | 0.00 | 0.00 | 77 | 1012.6 |
| 20260506221505 | 11 | 0 | 0.0 | 0.0 | 0.00 | 0.00 | 0.00 | 77 | 1012.5 |
| 20260506221005 | 11 | 354 | 0.0 | 8.0 | 0.00 | 0.00 | 0.00 | 77 | 1012.5 |
| 20260506220505 | 11 | 353 | 1.6 | 8.0 | 0.00 | 0.00 | 0.00 | 77 | 1012.4 |
| 20260506220005 | 11 | 347 | 1.6 | 12.9 | 0.00 | 0.00 | 0.00 | 76 | 1012.4 |
| 20260506215505 | 11 | 343 | 1.6 | 12.9 | 0.00 | 0.00 | 0.00 | 76 | 1012.4 |
| 20260506215007 | 11 | 341 | 3.2 | 9.7 | 0.00 | 0.00 | 0.00 | 76 | 1012.3 |
| 20260506214505 | 11 | 345 | 3.2 | 14.5 | 0.00 | 0.00 | 0.00 | 76 | 1012.3 |
| 20260506214005 | 11 | 350 | 1.6 | 14.5 | 0.00 | 0.00 | 0.00 | 76 | 1012.2 |
| 20260506213520 | 11 | 349 | 1.6 | 11.3 | 0.00 | 0.00 | 0.00 | 75 | 1012.2 |
| 20260506213005 | 11 | 343 | 3.2 | 9.7 | 0.00 | 0.00 | 0.00 | 75 | 1012.2 |
| 20260506212505 | 11 | 344 | 3.2 | 12.9 | 0.00 | 0.00 | 0.00 | 75 | 1012.2 |
| 20260506212005 | 11 | 351 | 1.6 | 12.9 | 0.00 | 0.00 | 0.00 | 75 | 1012.1 |
| 20260506211505 | 12 | 340 | 1.6 | 14.5 | 0.00 | 0.00 | 0.00 | 75 | 1012.1 |
| 20260506211005 | 12 | 335 | 1.6 | 14.5 | 0.00 | 0.00 | 0.00 | 76 | 1012.0 |
| 20260506210505 | 12 | 0 | 0.0 | 0.0 | 0.00 | 0.00 | 0.00 | 77 | 1012.0 |
| 20260506205505 | 12 | 343 | 0.0 | 8.0 | 0.00 | 0.00 | 0.00 | 77 | 1012.0 |
| 20260506205005 | 12 | 343 | 0.0 | 8.0 | 0.00 | 0.00 | 0.00 | 77 | 1012.0 |
| 20260506204507 | 12 | 0 | 0.0 | 0.0 | 0.00 | 0.00 | 0.00 | 76 | 1011.9 |
| 20260506203505 | 12 | 0 | 0.0 | 0.0 | 0.00 | 0.00 | 0.00 | 75 | 1011.9 |
| 20260506203005 | 12 | 0 | 0.0 | 0.0 | 0.00 | 0.00 | 0.00 | 75 | 1011.9 |
| 20260506202505 | 12 | 332 | 0.0 | 9.7 | 0.00 | 0.00 | 0.00 | 75 | 1011.8 |
| 20260506202005 | 12 | 330 | 1.6 | 9.7 | 0.00 | 0.00 | 0.00 | 75 | 1011.8 |
| 20260506201505 | 11 | 328 | 3.2 | 11.3 | 0.00 | 0.00 | 0.00 | 75 | 1011.8 |
| 20260506201005 | 11 | 327 | 1.6 | 11.3 | 0.00 | 0.00 | 0.00 | 75 | 1011.8 |
| 20260506200505 | 11 | 326 | 0.0 | 8.0 | 0.00 | 0.00 | 0.00 | 76 | 1011.7 |
| 20260506200005 | 11 | 0 | 0.0 | 0.0 | 0.00 | 0.00 | 0.00 | 75 | 1011.6 |
| 20260506195504 | 11 | 0 | 0.0 | 0.0 | 0.00 | 0.00 | 0.00 | 75 | 1011.6 |
| 20260506195005 | 12 | 0 | 0.0 | 0.0 | 0.00 | 0.00 | 0.00 | 74 | 1011.6 |
| 20260506194005 | 12 | 32 | 3.2 | 8.0 | 0.00 | 0.00 | 0.00 | 72 | 1011.5 |
| 20260506193505 | 12 | 28 | 4.8 | 8.0 | 0.00 | 0.00 | 0.00 | 71 | 1011.5 |
| 20260506193005 | 12 | 23 | 6.4 | 16.1 | 0.00 | 0.00 | 0.00 | 70 | 1011.5 |
| 20260506192505 | 12 | 20 | 6.4 | 16.1 | 0.00 | 0.00 | 0.00 | 69 | 1011.4 |
| 20260506191507 | 12 | 23 | 6.4 | 16.1 | 0.00 | 0.00 | 0.00 | 71 | 1011.2 |
| 20260506191005 | 12 | 23 | 1.6 | 14.5 | 0.00 | 0.00 | 0.00 | 72 | 1011.2 |
| 20260506190505 | 12 | 33 | 0.0 | 6.4 | 0.00 | 0.00 | 0.00 | 73 | 1011.1 |
| 20260506190006 | 12 | 0 | 0.0 | 0.0 | 0.00 | 0.00 | 0.00 | 74 | 1011.1 |
| 20260506184505 | 12 | 0 | 0.0 | 0.0 | 0.00 | 0.00 | 0.00 | 74 | 1010.8 |
| 20260506184006 | 12 | 0 | 0.0 | 0.0 | 0.00 | 0.00 | 0.00 | 72 | 1010.7 |
| 20260506183006 | 12 | 0 | 0.0 | 0.0 | 0.00 | 0.00 | 0.00 | 72 | 1010.7 |
| 20260506182505 | 12 | 0 | 0.0 | 0.0 | 0.00 | 0.00 | 0.00 | 69 | 1010.7 |
| 20260506182005 | 12 | 0 | 0.0 | 0.0 | 0.00 | 0.00 | 0.00 | 70 | 1010.5 |
| 20260506181506 | 12 | 0 | 0.0 | 0.0 | 0.00 | 0.00 | 0.00 | 69 | 1010.5 |
| 20260506181005 | 12 | 0 | 0.0 | 0.0 | 0.00 | 0.00 | 0.00 | 70 | 1010.5 |
| 20260506180507 | 12 | 0 | 0.0 | 0.0 | 0.00 | 0.00 | 0.00 | 70 | 1010.4 |
| 20260506180006 | 12 | 284 | 0.0 | 1.6 | 0.00 | 0.00 | 0.00 | 70 | 1010.3 |
| 20260506175506 | 12 | 284 | 0.0 | 1.6 | 0.00 | 0.00 | 0.00 | 70 | 1010.3 |
| 20260506175006 | 12 | 0 | 0.0 | 0.0 | 0.00 | 0.00 | 0.00 | 71 | 1010.3 |
| 20260506174521 | 12 | 0 | 0.0 | 0.0 | 0.00 | 0.00 | 0.00 | 70 | 1010.2 |
| 20260506174005 | 12 | 0 | 0.0 | 0.0 | 0.00 | 0.00 | 0.00 | 68 | 1010.1 |
| 20260506173507 | 12 | 0 | 0.0 | 0.0 | 0.00 | 0.00 | 0.00 | 69 | 1010.0 |
| 20260506172505 | 12 | 0 | 0.0 | 0.0 | 0.00 | 0.00 | 0.00 | 70 | 1009.9 |
| 20260506172006 | 13 | 0 | 0.0 | 0.0 | 0.00 | 0.00 | 0.00 | 70 | 1009.9 |
| 20260506171505 | 13 | 0 | 0.0 | 0.0 | 0.00 | 0.00 | 0.00 | 70 | 1009.9 |
| 20260506170505 | 13 | 49 | 3.2 | 9.7 | 0.00 | 0.00 | 0.00 | 69 | 1009.8 |
| 20260506170006 | 13 | 41 | 4.8 | 9.7 | 0.00 | 0.00 | 0.00 | 67 | 1009.8 |
| 20260506165506 | 13 | 35 | 4.8 | 8.0 | 0.00 | 0.00 | 0.00 | 66 | 1009.8 |
| 20260506164505 | 13 | 40 | 4.8 | 9.7 | 0.00 | 0.00 | 0.00 | 66 | 1009.8 |
| 20260506164005 | 13 | 44 | 4.8 | 11.3 | 0.00 | 0.00 | 0.00 | 67 | 1009.8 |
| 20260506163506 | 13 | 41 | 6.4 | 14.5 | 0.00 | 0.00 | 0.00 | 66 | 1009.8 |
| 20260506163005 | 13 | 37 | 8.0 | 14.5 | 0.00 | 0.00 | 0.00 | 65 | 1009.8 |
| 20260506162505 | 13 | 35 | 8.0 | 12.9 | 0.00 | 0.00 | 0.00 | 66 | 1009.8 |
| 20260506161506 | 13 | 29 | 9.7 | 16.1 | 0.00 | 0.00 | 0.00 | 63 | 1009.7 |
| 20260506161006 | 13 | 26 | 9.7 | 14.5 | 0.00 | 0.00 | 0.00 | 63 | 1009.7 |
| 20260506160505 | 13 | 25 | 9.7 | 16.1 | 0.00 | 0.00 | 0.00 | 63 | 1009.7 |
| 20260506160005 | 13 | 25 | 11.3 | 16.1 | 0.00 | 0.00 | 0.00 | 62 | 1009.8 |
| 20260506155506 | 13 | 25 | 9.7 | 16.1 | 0.00 | 0.00 | 0.00 | 63 | 1009.8 |
| 20260506155006 | 13 | 23 | 8.0 | 16.1 | 0.00 | 0.00 | 0.00 | 62 | 1009.8 |
| 20260506154506 | 13 | 19 | 6.4 | 14.5 | 0.00 | 0.00 | 0.00 | 62 | 1009.8 |
| 20260506154005 | 13 | 21 | 4.8 | 11.3 | 0.00 | 0.00 | 0.00 | 62 | 1009.8 |
| 20260506153005 | 13 | 36 | 8.0 | 14.5 | 0.00 | 0.00 | 0.00 | 65 | 1009.7 |
| 20260506152505 | 13 | 42 | 9.7 | 17.7 | 0.00 | 0.00 | 0.00 | 66 | 1009.8 |
| 20260506152005 | 13 | 39 | 9.7 | 17.7 | 0.00 | 0.00 | 0.00 | 65 | 1009.7 |
| 20260506151006 | 13 | 25 | 9.7 | 17.7 | 0.00 | 0.00 | 0.00 | 64 | 1009.7 |
| 20260506150506 | 13 | 26 | 9.7 | 17.7 | 0.00 | 0.00 | 0.00 | 62 | 1009.7 |
| 20260506145006 | 13 | 24 | 8.0 | 17.7 | 0.00 | 0.00 | 0.00 | 62 | 1009.6 |
| 20260506144006 | 14 | 26 | 11.3 | 16.1 | 0.00 | 0.00 | 0.00 | 64 | 1009.6 |
| 20260506143506 | 14 | 24 | 12.9 | 20.9 | 0.00 | 0.00 | 0.00 | 62 | 1009.6 |
| 20260506143005 | 14 | 25 | 14.5 | 20.9 | 0.00 | 0.00 | 0.00 | 61 | 1009.6 |
| 20260506142505 | 14 | 28 | 14.5 | 22.5 | 0.00 | 0.00 | 0.00 | 62 | 1009.6 |
| 20260506142005 | 14 | 28 | 16.1 | 24.1 | 0.00 | 0.00 | 0.00 | 60 | 1009.5 |
| 20260506141005 | 15 | 26 | 12.9 | 20.9 | 0.00 | 0.00 | 0.00 | 60 | 1009.5 |
| 20260506140505 | 15 | 28 | 14.5 | 20.9 | 0.00 | 0.00 | 0.00 | 59 | 1009.5 |
| 20260506140005 | 15 | 30 | 14.5 | 20.9 | 0.00 | 0.00 | 0.00 | 59 | 1009.5 |
| 20260506135505 | 15 | 26 | 14.5 | 22.5 | 0.00 | 0.00 | 0.00 | 59 | 1009.5 |
| 20260506135006 | 15 | 22 | 11.3 | 22.5 | 0.00 | 0.00 | 0.00 | 56 | 1009.4 |
| 20260506134006 | 15 | 16 | 9.7 | 20.9 | 0.00 | 0.00 | 0.00 | 54 | 1009.5 |
| 20260506133505 | 15 | 23 | 11.3 | 22.5 | 0.00 | 0.00 | 0.00 | 57 | 1009.5 |
| 20260506133005 | 15 | 22 | 14.5 | 22.5 | 0.00 | 0.00 | 0.00 | 56 | 1009.4 |
| 20260506132505 | 15 | 21 | 14.5 | 22.5 | 0.00 | 0.00 | 0.00 | 55 | 1009.3 |
| 20260506132005 | 16 | 16 | 11.3 | 22.5 | 0.00 | 0.00 | 0.00 | 56 | 1009.2 |
| 20260506131505 | 16 | 16 | 11.3 | 22.5 | 0.00 | 0.00 | 0.00 | 58 | 1009.2 |
| 20260506131005 | 16 | 18 | 11.3 | 22.5 | 0.00 | 0.00 | 0.00 | 56 | 1009.2 |
| 20260506130006 | 15 | 22 | 11.3 | 20.9 | 0.00 | 0.00 | 0.00 | 63 | 1009.1 |
| 20260506125507 | 15 | 22 | 11.3 | 20.9 | 0.00 | 0.00 | 0.00 | 63 | 1009.2 |
| 20260506125005 | 14 | 21 | 9.7 | 20.9 | 0.00 | 0.00 | 0.00 | 65 | 1009.2 |
| 20260506124505 | 14 | 17 | 8.0 | 20.9 | 0.00 | 0.00 | 0.00 | 65 | 1009.1 |
| 20260506124005 | 14 | 8 | 4.8 | 12.9 | 0.00 | 0.00 | 0.00 | 65 | 1009.0 |
| 20260506123506 | 14 | 12 | 6.4 | 16.1 | 0.00 | 0.00 | 0.00 | 65 | 1009.0 |
| 20260506123005 | 14 | 17 | 8.0 | 16.1 | 0.00 | 0.00 | 0.00 | 66 | 1009.0 |
| 20260506122005 | 14 | 9 | 8.0 | 19.3 | 0.00 | 0.00 | 0.00 | 66 | 1009.0 |
| 20260506121005 | 14 | 5 | 6.4 | 16.1 | 0.00 | 0.00 | 0.00 | 68 | 1009.0 |
| 20260506120005 | 13 | 3 | 6.4 | 14.5 | 0.00 | 0.00 | 0.00 | 68 | 1009.0 |
| 20260506115505 | 13 | 357 | 6.4 | 16.1 | 0.00 | 0.00 | 0.00 | 67 | 1009.0 |
| 20260506115005 | 13 | 6 | 6.4 | 16.1 | 0.00 | 0.00 | 0.00 | 68 | 1009.0 |
| 20260506114505 | 13 | 355 | 6.4 | 19.3 | 0.00 | 0.00 | 0.00 | 69 | 1009.0 |
| 20260506114005 | 13 | 345 | 8.0 | 19.3 | 0.00 | 0.00 | 0.00 | 69 | 1009.0 |
| 20260506113006 | 13 | 359 | 6.4 | 17.7 | 0.00 | 0.00 | 0.00 | 70 | 1009.1 |
| 20260506112505 | 13 | 2 | 8.0 | 17.7 | 0.00 | 0.00 | 0.00 | 71 | 1009.1 |
| 20260506112005 | 14 | 4 | 8.0 | 17.7 | 0.00 | 0.00 | 0.00 | 70 | 1009.0 |
| 20260506111505 | 14 | 2 | 9.7 | 19.3 | 0.00 | 0.00 | 0.00 | 70 | 1009.0 |
| 20260506111003 | 14 | 6 | 9.7 | 19.3 | 0.00 | 0.00 | 0.00 | 70 | 1008.9 |
| 20260506110505 | 14 | 9 | 9.7 | 19.3 | 0.00 | 0.00 | 0.00 | 71 | 1008.9 |
| 20260506110005 | 14 | 8 | 8.0 | 17.7 | 0.00 | 0.00 | 0.00 | 71 | 1008.9 |
| 20260506105005 | 15 | 10 | 9.7 | 19.3 | 0.00 | 0.00 | 0.00 | 70 | 1008.9 |
| 20260506104505 | 15 | 14 | 9.7 | 19.3 | 0.00 | 0.00 | 0.00 | 69 | 1008.9 |
| 20260506104005 | 14 | 7 | 8.0 | 19.3 | 0.00 | 0.00 | 0.00 | 69 | 1008.9 |
| 20260506103005 | 14 | 342 | 8.0 | 19.3 | 0.00 | 0.00 | 0.00 | 67 | 1008.8 |
| 20260506101505 | 15 | 355 | 6.4 | 20.9 | 0.00 | 0.00 | 0.00 | 64 | 1008.8 |
| 20260506101005 | 16 | 342 | 8.0 | 20.9 | 0.00 | 0.00 | 0.00 | 61 | 1008.7 |
| 20260506100505 | 16 | 345 | 9.7 | 19.3 | 0.00 | 0.00 | 0.00 | 58 | 1008.6 |
| 20260506100006 | 17 | 7 | 11.3 | 19.3 | 0.00 | 0.00 | 0.00 | 60 | 1008.6 |
| 20260506095507 | 16 | 16 | 12.9 | 20.9 | 0.00 | 0.00 | 0.00 | 63 | 1008.6 |
| 20260506095005 | 16 | 12 | 12.9 | 22.5 | 0.00 | 0.00 | 0.00 | 63 | 1008.6 |
| 20260506094506 | 16 | 14 | 11.3 | 22.5 | 0.00 | 0.00 | 0.00 | 61 | 1008.6 |
| 20260506094005 | 16 | 13 | 11.3 | 19.3 | 0.00 | 0.00 | 0.00 | 62 | 1008.5 |
| 20260506093506 | 16 | 14 | 11.3 | 20.9 | 0.00 | 0.00 | 0.00 | 65 | 1008.4 |
| 20260506093005 | 16 | 16 | 12.9 | 22.5 | 0.00 | 0.00 | 0.00 | 63 | 1008.6 |
| 20260506092505 | 15 | 15 | 12.9 | 22.5 | 0.00 | 0.00 | 0.00 | 64 | 1008.6 |
| 20260506092005 | 15 | 15 | 11.3 | 22.5 | 0.00 | 0.00 | 0.00 | 64 | 1008.5 |
| 20260506091505 | 15 | 11 | 9.7 | 22.5 | 0.00 | 0.00 | 0.00 | 64 | 1008.5 |
| 20260506091006 | 15 | 5 | 8.0 | 17.7 | 0.00 | 0.00 | 0.00 | 67 | 1008.5 |
| 20260506090006 | 14 | 14 | 9.7 | 20.9 | 0.00 | 0.00 | 0.00 | 70 | 1008.4 |
| 20260506085505 | 14 | 10 | 8.0 | 16.1 | 0.00 | 0.00 | 0.00 | 71 | 1008.4 |